Flag for Portugal Weather past 2 weeks in Porto, Portugal

Now
73 °F

Passing clouds.


Feels Like: 76 °F
Forecast: 60 / 80 °F
Wind: 3 mph from East

Location: Porto / Pedras Rubras

Current Time: Oct 22, 2014 at 11:24:30 AM

Latest Report: Oct 22, 2014 at 10:30 AM


Visibility: N/A

Pressure: 30.33 "Hg

Humidity: 69%

Dew point: 63 °F

Location of PortoLocation

Historic Weather in Porto — Graph

°F

Porto temperature yesterday

Maximum temperature yesterday: 84 °F (at 1:30 PM)
Minimum temperature yesterday: 63 °F (at 10:00 PM)
Average temperature yesterday: 71 °F

Past Weeks' High & Low Weather Summary

 TemperatureHumidityPressure
High84 °F (Oct 19, 4:30 PM)100% (Oct 7, 7:30 PM)30.33 "Hg (Oct 7, 7:30 PM)
Low52 °F (Oct 14, 2:00 AM)43% (Oct 20, 1:30 PM)29.56 "Hg (Oct 12, 4:00 AM)
Average65 °F87%29.90 "Hg
* Reported Oct 7 10:00 AM — Oct 22 10:00 AM, Porto, Weather by CustomWeather, © 2014

Note: Actual official high and low records may vary slightly from our data, if they occured in-between our weather recording intervals... More about our weather records

Advertising

Porto weather history for previous 24 hours

 ConditionsComfort  
Time TempWeatherWind HumidityBarometerVisibility
10:00 AM
Oct 22
70 °FPassing clouds.3 mph78%30.33 "HgN/A
9:30 AM66 °FPassing clouds.3 mph83%30.33 "HgN/A
9:00 AM63 °FSunny.6 mph94%30.33 "Hg10 mi
8:30 AM59 °FClear.6 mph94%30.33 "Hg10 mi
8:00 AM63 °FPassing clouds.3 mph88%30.33 "HgN/A
7:30 AM64 °FClear.3 mph83%30.30 "Hg10 mi
7:00 AM63 °FClear.6 mph94%30.30 "Hg10 mi
6:30 AM61 °FClear.2 mph94%30.30 "Hg5 mi
6:00 AM61 °FClear.2 mph94%30.30 "Hg5 mi
5:30 AM64 °FClear.3 mph88%30.30 "Hg6 mi
5:00 AM63 °FClear.2 mph94%30.30 "Hg6 mi
4:30 AM64 °FClear.6 mph88%30.30 "Hg6 mi
4:00 AM63 °FClear.1 mph100%30.30 "Hg4 mi
3:30 AM63 °FClear.2 mph94%30.33 "Hg4 mi
3:00 AM64 °FClear.1 mph94%30.33 "Hg4 mi
2:30 AM63 °FClear.3 mph100%30.33 "Hg4 mi
2:00 AM61 °FClear.3 mph100%30.33 "Hg4 mi
1:30 AM64 °FClear.2 mph100%30.33 "Hg4 mi
1:00 AM63 °FClear.2 mph100%30.33 "Hg4 mi
12:30 AM63 °FClear.2 mph94%30.33 "Hg5 mi
12:00 AM63 °FClear.3 mph100%30.33 "Hg6 mi
11:30 PM
Oct 21
64 °FClear.2 mph94%30.33 "Hg6 mi
11:00 PM64 °FClear.2 mph94%30.33 "Hg5 mi
10:30 PM63 °FClear.1 mph100%30.33 "Hg4 mi
10:00 PM63 °FClear.2 mph100%30.33 "Hg4 mi
9:30 PM64 °FClear.1 mph94%30.33 "Hg10 mi
9:00 PM66 °FClear.2 mph88%30.33 "Hg10 mi
8:30 PM66 °FClear.3 mph88%30.33 "Hg10 mi
8:00 PM68 °FClear.5 mph83%30.30 "Hg10 mi
7:30 PM68 °FSunny.5 mph83%30.30 "Hg10 mi
7:00 PM70 °FSunny.6 mph78%30.30 "Hg10 mi
6:30 PM73 °FSunny.7 mph74%30.30 "Hg10 mi
6:00 PM73 °FSunny.3 mph83%30.27 "Hg10 mi
5:30 PM75 °FSunny.5 mph74%30.27 "Hg10 mi
5:00 PM77 °FSunny.3 mph69%30.27 "Hg10 mi
4:30 PM77 °FSunny.2 mph69%30.27 "Hg10 mi
4:00 PM79 °FSunny.5 mph61%30.27 "Hg10 mi
3:30 PM81 °FSunny.3 mph62%30.27 "Hg10 mi
3:00 PM81 °FSunny.5 mph58%30.27 "Hg10 mi
2:30 PM84 °FPassing clouds.3 mph58%30.27 "HgN/A
2:00 PM84 °FPassing clouds.3 mph48%30.27 "HgN/A
1:30 PM84 °FPassing clouds.3 mph48%30.27 "HgN/A
1:00 PM81 °FPassing clouds.5 mph54%30.30 "HgN/A
12:30 PM81 °FPassing clouds.3 mph54%30.27 "HgN/A
12:00 PM79 °FPassing clouds.5 mph58%30.27 "HgN/A
11:30 AM75 °FPassing clouds.6 mph65%30.27 "HgN/A
11:00 AM75 °FPassing clouds.5 mph61%30.27 "HgN/A
Weather by CustomWeather, © 2014

See weather overviewHow to use our weather pages